Weather History for Salina, KS

Change the Weather History Date:

Friday, April 19, 2013

  Actual Average Record
Temperature  
Mean Temperature 45 °F 56 °F  
Max Temperature 59 °F 68 °F 91 °F (1961)
Min Temperature 30 °F 44 °F 21 °F (1907)
Degree Days  
Heating Degree Days 20 10  
Month to date heating degree days 323 232  
Since 1 July heating degree days 4667 4682  
Cooling Degree Days 0 1  
Month to date cooling degree days 2 11  
Year to date cooling degree days 2 13  
Moisture  
Dew Point 27 °F    
Average Humidity 51    
Maximum Humidity 69    
Minimum Humidity 33    
Precipitation  
Precipitation 0.00 in 0.11 in 1.34 in (2003)
Month to date precipitation 1.77 1.83  
Year to date precipitation 5.66 6.02  
Sea Level Pressure  
Sea Level Pressure 30.07 in    
Wind  
Wind Speed 12 mph (NW)    
Max Wind Speed 26 mph    
Max Gust Speed 32 mph    
Visibility 10 miles    
Events      
T = Trace of Precipitation, MM = Missing Value Source: NWS Daily Summary

Daily Weather History Graph

Daily Weather History Graph

Search for Another Location

Airport:

Trip Planner

Search our weather history database for the weather conditions in past years. The results will help you decide how hot, cold, wet, or windy it might be!

Date:

Astronomy

Apr. 19, 2013 Rise Set
Actual Time 6:48 AM CDT 8:11 PM CDT
Civil Twilight 6:20 AM CDT 8:39 PM CDT
Nautical Twilight 5:47 AM CDT 9:13 PM CDT
Astronomical Twilight 5:12 AM CDT 9:48 PM CDT
Moon 2:01 PM CDT (4/19) 3:00 AM CDT (4/19)
Length of Visible Light 14h 19m
Length of Day
13h 23m
First Quarter, 62% of the Moon is Illuminated
Apr 19
First Quarter
Apr 25
Full
May 2
Last Quarter
May 9
New
May 17
First Quarter

Hourly Weather History & Observations

Time (CDT) Temp. Windchill Dew Point Humidity Pressure Visibility Wind Dir Wind Speed Gust Speed Precip Events Conditions
12:53 AM 34.0 °F 25.0 °F 24.1 °F 67% 30.08 in 10.0 mi WNW 12.7 mph - N/A   Clear
1:53 AM 33.1 °F 23.4 °F 24.1 °F 70% 30.08 in 10.0 mi WNW 13.8 mph - N/A   Clear
2:53 AM 32.0 °F 21.6 °F 23.0 °F 69% 30.07 in 10.0 mi WNW 15.0 mph - N/A   Clear
3:53 AM 32.0 °F 21.6 °F 23.0 °F 69% 30.06 in 10.0 mi WNW 15.0 mph - N/A   Clear
4:53 AM 30.9 °F 20.7 °F 21.9 °F 69% 30.07 in 10.0 mi WNW 13.8 mph - N/A   Clear
5:53 AM 30.9 °F 21.2 °F 21.9 °F 69% 30.07 in 10.0 mi WNW 12.7 mph - N/A   Clear
6:53 AM 30.9 °F 22.2 °F 21.9 °F 69% 30.09 in 10.0 mi West 10.4 mph - N/A   Clear
7:53 AM 33.1 °F 24.4 °F 23.0 °F 66% 30.10 in 10.0 mi West 11.5 mph - N/A   Clear
8:53 AM 37.9 °F 29.2 °F 25.0 °F 60% 30.10 in 10.0 mi West 15.0 mph - N/A   Clear
9:53 AM 41.0 °F 33.1 °F 25.0 °F 53% 30.09 in 10.0 mi West 15.0 mph - N/A   Clear
10:53 AM 46.0 °F 40.2 °F 26.1 °F 46% 30.07 in 10.0 mi West 12.7 mph - N/A   Clear
11:53 AM 50.0 °F - 24.1 °F 36% 30.06 in 10.0 mi WNW 13.8 mph 20.7 mph N/A   Scattered Clouds
12:53 PM 55.0 °F - 28.0 °F 35% 30.04 in 10.0 mi NW 15.0 mph - N/A   Scattered Clouds
1:53 PM 57.0 °F - 30.0 °F 36% 30.03 in 10.0 mi NW 19.6 mph 25.3 mph N/A   Scattered Clouds
2:53 PM 57.9 °F - 30.9 °F 36% 30.03 in 10.0 mi NW 15.0 mph - N/A   Scattered Clouds
3:53 PM 59.0 °F - 30.9 °F 35% 30.03 in 10.0 mi NW 16.1 mph - N/A   Scattered Clouds
4:53 PM 57.9 °F - 30.0 °F 35% 30.03 in 10.0 mi NW 21.9 mph 31.1 mph N/A   Partly Cloudy
5:53 PM 57.0 °F - 30.9 °F 37% 30.04 in 10.0 mi NNW 12.7 mph - N/A   Clear
6:53 PM 55.9 °F - 33.1 °F 42% 30.04 in 10.0 mi NNW 11.5 mph - N/A   Clear
7:53 PM 52.0 °F - 30.0 °F 43% 30.04 in 10.0 mi North 9.2 mph - N/A   Clear
8:53 PM 50.0 °F - 30.0 °F 46% 30.07 in 10.0 mi NNE 5.8 mph - N/A   Clear
9:53 PM 48.0 °F - 30.0 °F 50% 30.09 in 10.0 mi NE 9.2 mph - N/A   Clear
10:53 PM 46.0 °F 43.1 °F 28.0 °F 50% 30.10 in 10.0 mi ENE 5.8 mph - N/A   Clear
11:53 PM 39.9 °F - 28.9 °F 65% 30.11 in 10.0 mi Calm Calm - N/A   Clear